Time,TemperatureF,DewpointF,PressureIn,WindDirection,WindDirectionDegrees,WindSpeedMPH,WindSpeedGustMPH,Humidity,HourlyPrecipIn,Conditions,Clouds,dailyrainin,SolarRadiationWatts/m^2,SoftwareType,DateUTC
2013-11-06 00:01:00,33.0,28.4,30.10,NNW,327,2.9,6.9,83,0.00,-SN,,0.00,0.0,WeatherDisplay:10.37,2013-11-06 06:01:00,
2013-11-06 00:06:00,32.9,28.6,30.09,NE,36,3.2,6.0,84,0.00,-SN,,0.00,0.0,WeatherDisplay:10.37,2013-11-06 06:06:00,
2013-11-06 00:11:00,32.6,28.6,30.09,North,355,3.7,6.0,85,0.00,-SN,,0.00,0.0,WeatherDisplay:10.37,2013-11-06 06:11:00,
2013-11-06 00:16:00,32.5,28.8,30.09,North,350,2.3,5.0,86,0.00,-SN,,0.00,0.0,WeatherDisplay:10.37,2013-11-06 06:16:00,
2013-11-06 00:21:00,32.4,28.7,30.09,North,355,1.0,2.3,86,0.00,-SN,,0.00,0.0,WeatherDisplay:10.37,2013-11-06 06:21:00,
2013-11-06 00:26:00,32.6,29.2,30.09,North,351,2.6,5.0,87,0.00,-SN,,0.00,0.0,WeatherDisplay:10.37,2013-11-06 06:26:00,
2013-11-06 00:31:00,32.7,29.0,30.09,NW,323,2.1,6.0,86,0.00,-SN,,0.00,0.0,WeatherDisplay:10.37,2013-11-06 06:31:00,
2013-11-06 00:36:00,32.9,28.6,30.09,NW,324,1.9,4.0,84,0.00,-SN,,0.00,0.0,WeatherDisplay:10.37,2013-11-06 06:36:00,
2013-11-06 00:41:00,32.9,28.6,30.09,NW,315,1.4,3.5,84,0.00,-SN,,0.00,0.0,WeatherDisplay:10.37,2013-11-06 06:41:00,
2013-11-06 00:46:00,32.9,28.6,30.09,NNW,331,1.4,3.5,84,0.00,-SN,,0.00,0.0,WeatherDisplay:10.37,2013-11-06 06:46:00,
2013-11-06 00:51:00,32.7,28.1,30.09,NNW,339,1.2,4.0,83,0.00,-SN,,0.00,0.0,WeatherDisplay:10.37,2013-11-06 06:51:00,
2013-11-06 00:56:00,32.9,28.3,30.09,NW,322,1.9,3.5,83,0.00,-SN,,0.00,0.0,WeatherDisplay:10.37,2013-11-06 06:56:00,
2013-11-06 01:01:00,33.1,28.2,30.09,NW,316,2.3,5.0,82,0.00,-SN,,0.00,0.0,WeatherDisplay:10.37,2013-11-06 07:01:00,
2013-11-06 01:06:00,33.2,28.3,30.09,NW,316,0.4,1.2,82,0.00,-SN,,0.00,0.0,WeatherDisplay:10.37,2013-11-06 07:06:00,
2013-11-06 01:11:00,33.3,28.1,30.09,NNW,333,4.3,9.0,81,0.00,-SN,,0.00,0.0,WeatherDisplay:10.37,2013-11-06 07:11:00,
2013-11-06 01:16:00,33.3,28.1,30.09,WNW,300,3.6,7.0,81,0.00,-SN,,0.00,0.0,WeatherDisplay:10.37,2013-11-06 07:16:00,
2013-11-06 01:21:00,33.2,28.0,30.09,NNE,13,3.7,9.0,81,0.00,-SN,,0.00,0.0,WeatherDisplay:10.37,2013-11-06 07:21:00,
2013-11-06 01:26:00,33.1,27.9,30.10,NW,313,1.2,3.5,81,0.00,-SN,,0.00,0.0,WeatherDisplay:10.37,2013-11-06 07:26:00,
2013-11-06 01:31:00,33.0,28.1,30.10,NNE,22,2.8,6.0,82,0.00,-SN,,0.00,0.0,WeatherDisplay:10.37,2013-11-06 07:31:00,
2013-11-06 01:36:00,32.9,27.7,30.09,NNW,336,2.5,4.6,81,0.00,-SN,,0.00,0.0,WeatherDisplay:10.37,2013-11-06 07:36:00,
2013-11-06 01:41:00,33.0,27.8,30.10,NNW,343,2.5,4.0,81,0.00,-SN,,0.00,0.0,WeatherDisplay:10.37,2013-11-06 07:41:00,
2013-11-06 01:46:00,33.0,27.8,30.10,North,360,2.6,4.0,81,0.00,-SN,,0.00,0.0,WeatherDisplay:10.37,2013-11-06 07:46:00,
2013-11-06 01:51:00,32.9,28.0,30.10,North,355,0.9,3.5,82,0.00,-SN,,0.00,0.0,WeatherDisplay:10.37,2013-11-06 07:51:00,
2013-11-06 01:56:00,33.0,28.1,30.10,NNW,346,0.6,2.3,82,0.00,-SN,,0.00,0.0,WeatherDisplay:10.37,2013-11-06 07:56:00,
2013-11-06 02:01:00,33.3,28.4,30.10,NW,322,0.8,2.3,82,0.00,-SN,,0.00,0.0,WeatherDisplay:10.37,2013-11-06 08:01:00,
2013-11-06 02:06:00,33.3,28.1,30.10,NW,325,4.4,7.0,81,0.00,-SN,,0.00,0.0,WeatherDisplay:10.37,2013-11-06 08:06:00,
2013-11-06 02:11:00,33.3,27.8,30.10,NW,313,1.4,3.0,80,0.00,-SN,,0.00,0.0,WeatherDisplay:10.37,2013-11-06 08:11:00,
2013-11-06 02:16:00,33.3,27.8,30.09,NW,309,1.9,6.0,80,0.00,-SN,,0.00,0.0,WeatherDisplay:10.37,2013-11-06 08:16:00,
2013-11-06 02:21:00,33.4,27.6,30.09,NW,325,3.5,6.0,79,0.00,-SN,,0.00,0.0,WeatherDisplay:10.37,2013-11-06 08:21:00,
2013-11-06 02:26:00,33.4,27.6,30.09,NW,321,1.8,3.5,79,0.00,-SN,,0.00,0.0,WeatherDisplay:10.37,2013-11-06 08:26:00,
2013-11-06 02:31:00,33.4,27.6,30.09,NNW,330,0.4,3.5,79,0.00,-SN,,0.00,0.0,WeatherDisplay:10.37,2013-11-06 08:31:00,
2013-11-06 02:36:00,33.4,27.6,30.08,NNW,334,1.1,3.5,79,0.00,-SN,,0.00,0.0,WeatherDisplay:10.37,2013-11-06 08:36:00,
2013-11-06 02:41:00,33.4,27.6,30.08,NNW,330,0.4,3.5,79,0.00,-SN,,0.00,0.0,WeatherDisplay:10.37,2013-11-06 08:41:00,
2013-11-06 02:46:00,33.3,27.5,30.09,NNW,329,1.3,2.3,79,0.00,-SN,,0.00,0.0,WeatherDisplay:10.37,2013-11-06 08:46:00,
2013-11-06 02:51:00,33.3,27.5,30.08,North,355,1.7,4.0,79,0.00,-SN,,0.00,0.0,WeatherDisplay:10.37,2013-11-06 08:51:00,
2013-11-06 02:56:00,33.3,27.5,30.09,NW,325,1.8,6.0,79,0.00,-SN,,0.00,0.0,WeatherDisplay:10.37,2013-11-06 08:56:00,
2013-11-06 03:01:00,33.3,27.5,30.09,NNW,337,1.2,3.5,79,0.00,-SN,,0.00,0.0,WeatherDisplay:10.37,2013-11-06 09:01:00,
2013-11-06 03:06:00,33.3,27.5,30.08,NW,304,3.1,5.0,79,0.00,-SN,,0.00,0.0,WeatherDisplay:10.37,2013-11-06 09:06:00,
2013-11-06 03:11:00,33.3,27.5,30.09,WNW,302,2.0,5.8,79,0.00,-SN,,0.00,0.0,WeatherDisplay:10.37,2013-11-06 09:11:00,
2013-11-06 03:16:00,33.2,27.4,30.09,NW,317,1.2,2.3,79,0.00,-SN,,0.00,0.0,WeatherDisplay:10.37,2013-11-06 09:16:00,
2013-11-06 03:21:00,33.2,27.4,30.09,NNW,330,1.9,4.0,79,0.00,-SN,,0.00,0.0,WeatherDisplay:10.37,2013-11-06 09:21:00,
2013-11-06 03:26:00,33.2,27.4,30.09,NNW,327,2.4,5.0,79,0.00,-SN,,0.00,0.0,WeatherDisplay:10.37,2013-11-06 09:26:00,
2013-11-06 03:31:00,33.2,27.4,30.08,NW,318,0.7,3.0,79,0.00,-SN,,0.00,0.0,WeatherDisplay:10.37,2013-11-06 09:31:00,
2013-11-06 03:36:00,33.0,27.2,30.08,NW,326,2.0,3.5,79,0.00,-SN,,0.00,0.0,WeatherDisplay:10.37,2013-11-06 09:36:00,
2013-11-06 03:41:00,32.9,27.1,30.08,North,11,2.1,6.9,79,0.00,-SN,,0.00,0.0,WeatherDisplay:10.37,2013-11-06 09:41:00,
2013-11-06 03:46:00,32.8,27.0,30.08,NW,314,3.1,4.0,79,0.00,-SN,,0.00,0.0,WeatherDisplay:10.37,2013-11-06 09:46:00,
2013-11-06 03:51:00,32.8,27.0,30.08,NW,315,2.1,4.0,79,0.00,-SN,,0.00,0.0,WeatherDisplay:10.37,2013-11-06 09:51:00,
2013-11-06 03:56:00,32.8,27.3,30.08,WNW,283,2.7,6.0,80,0.00,-SN,,0.00,0.0,WeatherDisplay:10.37,2013-11-06 09:56:00,
2013-11-06 04:01:00,32.7,27.2,30.09,NW,320,3.8,8.0,80,0.00,-SN,,0.00,0.0,WeatherDisplay:10.37,2013-11-06 10:01:00,
2013-11-06 04:06:00,32.8,27.0,30.09,NW,324,2.9,5.8,79,0.00,-SN,,0.00,0.0,WeatherDisplay:10.37,2013-11-06 10:06:00,
2013-11-06 04:11:00,32.8,27.0,30.09,NW,324,3.8,7.0,79,0.00,-SN,,0.00,0.0,WeatherDisplay:10.37,2013-11-06 10:11:00,
2013-11-06 04:16:00,32.9,26.8,30.09,NNW,330,3.2,7.0,78,0.00,-SN,,0.00,0.0,WeatherDisplay:10.37,2013-11-06 10:16:00,
2013-11-06 04:21:00,32.9,26.8,30.09,NW,315,3.9,6.0,78,0.00,-SN,,0.00,0.0,WeatherDisplay:10.37,2013-11-06 10:21:00,
2013-11-06 04:26:00,32.8,26.7,30.09,NW,318,4.2,8.1,78,0.00,-SN,,0.00,0.0,WeatherDisplay:10.37,2013-11-06 10:26:00,
2013-11-06 04:31:00,32.8,26.7,30.09,NNW,337,2.9,5.0,78,0.00,-SN,,0.00,0.0,WeatherDisplay:10.37,2013-11-06 10:31:00,
2013-11-06 04:36:00,32.6,26.5,30.09,NW,323,2.5,7.0,78,0.00,-SN,,0.00,0.0,WeatherDisplay:10.37,2013-11-06 10:36:00,
2013-11-06 04:41:00,32.4,26.3,30.09,NNW,334,2.4,6.0,78,0.00,-SN,,0.00,0.0,WeatherDisplay:10.37,2013-11-06 10:41:00,
2013-11-06 04:46:00,32.4,26.3,30.09,NW,321,2.1,5.0,78,0.00,-SN,,0.00,0.0,WeatherDisplay:10.37,2013-11-06 10:46:00,
2013-11-06 04:51:00,32.3,26.2,30.09,NNW,330,2.0,5.8,78,0.00,-SN,,0.00,0.0,WeatherDisplay:10.37,2013-11-06 10:51:00,
2013-11-06 04:56:00,32.2,26.1,30.09,NW,321,2.7,6.0,78,0.00,-SN,,0.00,0.0,WeatherDisplay:10.37,2013-11-06 10:56:00,
2013-11-06 05:01:00,32.0,25.9,30.09,NW,325,3.4,8.0,78,0.00,-SN,,0.00,0.0,WeatherDisplay:10.37,2013-11-06 11:01:00,
2013-11-06 05:06:00,32.0,25.9,30.09,NW,325,4.5,6.0,78,0.00,-SN,,0.00,0.0,WeatherDisplay:10.37,2013-11-06 11:06:00,
2013-11-06 05:11:00,31.9,25.8,30.08,NW,323,2.7,5.0,78,0.00,-SN,,0.00,0.0,WeatherDisplay:10.37,2013-11-06 11:11:00,
2013-11-06 05:16:00,31.7,25.6,30.08,NW,319,1.7,4.6,78,0.00,-SN,,0.00,0.0,WeatherDisplay:10.37,2013-11-06 11:16:00,
2013-11-06 05:21:00,31.5,25.4,30.08,WNW,300,4.7,7.0,78,0.00,-SN,,0.00,0.0,WeatherDisplay:10.37,2013-11-06 11:21:00,
2013-11-06 05:26:00,31.4,25.3,30.08,NNW,328,3.4,6.0,78,0.00,-SN,,0.00,0.0,WeatherDisplay:10.37,2013-11-06 11:26:00,
2013-11-06 05:31:00,31.2,25.1,30.08,NW,322,3.5,6.0,78,0.00,-SN,,0.00,0.0,WeatherDisplay:10.37,2013-11-06 11:31:00,
2013-11-06 05:36:00,31.1,25.0,30.08,WNW,282,3.7,6.0,78,0.00,-SN,,0.00,0.0,WeatherDisplay:10.37,2013-11-06 11:36:00,
2013-11-06 05:41:00,31.0,24.3,30.08,NW,317,2.1,5.0,76,0.00,-SN,,0.00,0.0,WeatherDisplay:10.37,2013-11-06 11:41:00,
2013-11-06 05:46:00,30.8,24.1,30.08,NNW,335,2.4,5.8,76,0.00,-SN,,0.00,0.0,WeatherDisplay:10.37,2013-11-06 11:46:00,
2013-11-06 05:51:00,30.7,24.0,30.08,NW,319,2.3,5.0,76,0.00,-SN,,0.00,0.0,WeatherDisplay:10.37,2013-11-06 11:51:00,
2013-11-06 05:56:00,30.6,23.6,30.08,NNW,333,3.7,6.0,75,0.00,-SN,,0.00,0.0,WeatherDisplay:10.37,2013-11-06 11:56:00,
2013-11-06 06:01:00,30.5,23.5,30.08,NW,311,5.1,8.1,75,0.00,-SN,,0.00,0.0,WeatherDisplay:10.37,2013-11-06 12:01:00,
2013-11-06 06:06:00,30.5,23.5,30.08,NW,313,3.9,9.2,75,0.00,-SN,,0.00,0.0,WeatherDisplay:10.37,2013-11-06 12:06:00,
2013-11-06 06:11:00,30.5,23.2,30.08,NNW,344,2.7,4.0,74,0.00,-SN,,0.00,0.0,WeatherDisplay:10.37,2013-11-06 12:11:00,
2013-11-06 06:16:00,30.4,23.1,30.08,NW,323,3.0,5.0,74,0.00,-SN,,0.00,0.0,WeatherDisplay:10.37,2013-11-06 12:16:00,
2013-11-06 06:21:00,30.2,22.6,30.08,NNW,331,2.7,7.0,73,0.00,-SN,,0.00,0.0,WeatherDisplay:10.37,2013-11-06 12:21:00,
2013-11-06 06:26:00,29.9,22.3,30.08,NW,315,3.5,6.0,73,0.00,-SN,,0.00,0.0,WeatherDisplay:10.37,2013-11-06 12:26:00,
2013-11-06 06:31:00,29.8,21.9,30.08,NW,313,2.1,4.6,72,0.00,-SN,,0.00,0.0,WeatherDisplay:10.37,2013-11-06 12:31:00,
2013-11-06 06:36:00,29.8,21.9,30.08,NW,311,2.2,4.0,72,0.00,-SN,,0.00,0.0,WeatherDisplay:10.37,2013-11-06 12:36:00,
2013-11-06 06:41:00,29.7,21.8,30.09,NNW,336,1.8,3.5,72,0.00,-SN,,0.00,0.0,WeatherDisplay:10.37,2013-11-06 12:41:00,
2013-11-06 06:46:00,29.6,21.7,30.08,NNW,335,3.0,5.8,72,0.00,-SN,,0.00,0.0,WeatherDisplay:10.37,2013-11-06 12:46:00,
2013-11-06 06:51:00,29.5,21.6,30.08,NW,319,2.0,5.0,72,0.00,-SN,,0.00,0.0,WeatherDisplay:10.37,2013-11-06 12:51:00,
2013-11-06 06:56:00,29.4,21.5,30.08,NW,323,2.8,5.0,72,0.00,-SN,,0.00,0.0,WeatherDisplay:10.37,2013-11-06 12:56:00,
2013-11-06 07:01:00,29.4,21.5,30.09,WNW,302,2.3,5.0,72,0.00,-SN,,0.00,0.0,WeatherDisplay:10.37,2013-11-06 13:01:00,
2013-11-06 07:06:00,29.4,21.2,30.09,WNW,291,2.8,5.8,71,0.00,-SN,,0.00,0.0,WeatherDisplay:10.37,2013-11-06 13:06:00,
2013-11-06 07:11:00,29.3,21.1,30.09,NNW,330,2.4,4.0,71,0.00,-SN,,0.00,5.0,WeatherDisplay:10.37,2013-11-06 13:11:00,
2013-11-06 07:16:00,29.3,21.1,30.09,NNW,327,3.4,6.0,71,0.00,-SN,,0.00,7.0,WeatherDisplay:10.37,2013-11-06 13:16:00,
2013-11-06 07:21:00,29.2,21.0,30.09,NNW,333,1.1,3.5,71,0.00,-SN,,0.00,11.0,WeatherDisplay:10.37,2013-11-06 13:21:00,
2013-11-06 07:26:00,29.1,20.9,30.09,NW,314,1.5,4.6,71,0.00,-SN,,0.00,12.0,WeatherDisplay:10.37,2013-11-06 13:26:00,
2013-11-06 07:31:00,29.0,20.8,30.09,NNW,338,3.1,5.0,71,0.00,-SN,,0.00,14.0,WeatherDisplay:10.37,2013-11-06 13:31:00,
2013-11-06 07:36:00,28.9,20.7,30.10,NNW,328,2.5,6.0,71,0.00,-SN,,0.00,16.0,WeatherDisplay:10.37,2013-11-06 13:36:00,
2013-11-06 07:41:00,28.9,20.7,30.10,NW,318,1.6,4.6,71,0.00,-SN,,0.00,18.0,WeatherDisplay:10.37,2013-11-06 13:41:00,
2013-11-06 07:46:00,29.0,20.8,30.09,NNW,345,2.7,5.0,71,0.00,-SN,,0.00,19.0,WeatherDisplay:10.37,2013-11-06 13:46:00,
2013-11-06 07:51:00,29.1,20.9,30.10,NNW,327,4.2,8.0,71,0.00,-SN,,0.00,19.0,WeatherDisplay:10.37,2013-11-06 13:51:00,
2013-11-06 07:56:00,29.2,21.0,30.10,NNW,331,3.0,7.0,71,0.00,-SN,,0.00,21.0,WeatherDisplay:10.37,2013-11-06 13:56:00,
2013-11-06 08:01:00,29.3,20.7,30.10,NW,305,2.6,6.0,70,0.00,-SN,,0.00,23.0,WeatherDisplay:10.37,2013-11-06 14:01:00,
2013-11-06 08:06:00,29.4,20.8,30.10,NW,319,3.2,8.1,70,0.00,CLR,,0.00,23.0,WeatherDisplay:10.37,2013-11-06 14:06:00,
2013-11-06 08:11:00,29.5,20.6,30.10,WNW,295,7.1,9.2,69,0.00,CLR,,0.00,25.0,WeatherDisplay:10.37,2013-11-06 14:11:00,
2013-11-06 08:16:00,29.6,20.7,30.10,NW,315,3.2,5.0,69,0.00,CLR,,0.00,26.0,WeatherDisplay:10.37,2013-11-06 14:16:00,
2013-11-06 08:21:00,29.7,20.4,30.10,NW,307,3.3,6.0,68,0.00,CLR,,0.00,26.0,WeatherDisplay:10.37,2013-11-06 14:21:00,
2013-11-06 08:26:00,29.8,20.5,30.10,NW,319,3.6,7.0,68,0.00,CLR,,0.00,28.0,WeatherDisplay:10.37,2013-11-06 14:26:00,
2013-11-06 08:31:00,30.0,20.4,30.10,NNW,342,2.8,10.4,67,0.00,CLR,,0.00,28.0,WeatherDisplay:10.37,2013-11-06 14:31:00,
2013-11-06 08:36:00,30.2,20.6,30.11,NNW,327,3.8,5.0,67,0.00,CLR,,0.00,102.0,WeatherDisplay:10.37,2013-11-06 14:36:00,
2013-11-06 08:41:00,30.4,20.4,30.11,NNW,344,6.1,10.0,66,0.00,CLR,,0.00,185.0,WeatherDisplay:10.37,2013-11-06 14:41:00,
2013-11-06 08:46:00,30.7,20.7,30.11,NW,316,3.1,8.0,66,0.00,CLR,,0.00,200.0,WeatherDisplay:10.37,2013-11-06 14:46:00,
2013-11-06 08:51:00,31.2,20.8,30.11,NNW,330,5.4,10.4,65,0.00,CLR,,0.00,213.0,WeatherDisplay:10.37,2013-11-06 14:51:00,
2013-11-06 08:56:00,31.4,20.6,30.11,WNW,288,5.9,10.0,64,0.00,CLR,,0.00,229.0,WeatherDisplay:10.37,2013-11-06 14:56:00,
2013-11-06 09:01:00,31.7,20.5,30.11,NW,304,5.1,10.4,63,0.00,CLR,,0.00,211.0,WeatherDisplay:10.37,2013-11-06 15:01:00,
2013-11-06 09:06:00,32.0,20.8,30.11,NW,319,4.1,6.0,63,0.00,CLR,,0.00,253.0,WeatherDisplay:10.37,2013-11-06 15:06:00,
2013-11-06 09:11:00,32.0,20.4,30.10,NNW,336,2.2,5.0,62,0.00,CLR,,0.00,265.0,WeatherDisplay:10.37,2013-11-06 15:11:00,
2013-11-06 09:16:00,32.5,20.9,30.11,WNW,298,4.3,6.0,62,0.00,CLR,,0.00,278.0,WeatherDisplay:10.37,2013-11-06 15:16:00,
2013-11-06 09:21:00,32.8,20.8,30.11,NNW,336,5.8,8.1,61,0.00,CLR,,0.00,288.0,WeatherDisplay:10.37,2013-11-06 15:21:00,
2013-11-06 09:26:00,33.0,20.6,30.11,NW,318,5.2,7.0,60,0.00,CLR,,0.00,297.0,WeatherDisplay:10.37,2013-11-06 15:26:00,
2013-11-06 09:31:00,33.3,20.5,30.11,NNW,332,3.8,6.0,59,0.00,CLR,,0.00,308.0,WeatherDisplay:10.37,2013-11-06 15:31:00,
2013-11-06 09:36:00,33.6,20.4,30.11,NW,323,2.3,6.9,58,0.00,CLR,,0.00,318.0,WeatherDisplay:10.37,2013-11-06 15:36:00,
2013-11-06 09:41:00,34.0,20.8,30.11,NW,306,4.8,8.1,58,0.00,CLR,,0.00,327.0,WeatherDisplay:10.37,2013-11-06 15:41:00,
2013-11-06 09:46:00,34.3,21.0,30.11,NNW,331,6.0,10.4,58,0.00,CLR,,0.00,338.0,WeatherDisplay:10.37,2013-11-06 15:46:00,
2013-11-06 09:51:00,34.5,20.8,30.11,NW,318,4.2,7.0,57,0.00,CLR,,0.00,346.0,WeatherDisplay:10.37,2013-11-06 15:51:00,
2013-11-06 09:56:00,34.7,21.0,30.11,WNW,288,5.2,8.1,57,0.00,CLR,,0.00,355.0,WeatherDisplay:10.37,2013-11-06 15:56:00,
2013-11-06 10:01:00,34.8,20.7,30.11,NW,318,3.3,6.9,56,0.00,CLR,,0.00,362.0,WeatherDisplay:10.37,2013-11-06 16:01:00,
2013-11-06 10:06:00,35.0,21.7,30.10,WNW,290,4.3,6.0,58,0.00,CLR,,0.00,369.0,WeatherDisplay:10.37,2013-11-06 16:06:00,
2013-11-06 10:11:00,35.4,22.1,30.11,NW,313,2.6,4.6,58,0.00,CLR,,0.00,380.0,WeatherDisplay:10.37,2013-11-06 16:11:00,
2013-11-06 10:16:00,35.5,21.3,30.11,NW,311,4.1,8.1,56,0.00,CLR,,0.00,385.0,WeatherDisplay:10.37,2013-11-06 16:16:00,
2013-11-06 10:21:00,35.7,21.9,30.11,West,274,3.9,5.0,57,0.00,CLR,,0.00,392.0,WeatherDisplay:10.37,2013-11-06 16:21:00,
2013-11-06 10:26:00,36.0,21.8,30.11,NW,304,4.2,8.1,56,0.00,CLR,,0.00,399.0,WeatherDisplay:10.37,2013-11-06 16:26:00,
2013-11-06 10:31:00,36.0,20.9,30.11,NW,323,5.3,11.0,54,0.00,CLR,,0.00,406.0,WeatherDisplay:10.37,2013-11-06 16:31:00,
2013-11-06 10:36:00,36.2,21.1,30.11,WNW,303,4.1,6.0,54,0.00,CLR,,0.00,411.0,WeatherDisplay:10.37,2013-11-06 16:36:00,
2013-11-06 10:41:00,36.3,21.7,30.11,WNW,292,2.0,5.8,55,0.00,CLR,,0.00,418.0,WeatherDisplay:10.37,2013-11-06 16:41:00,
2013-11-06 10:46:00,36.8,22.6,30.11,NW,311,3.0,5.0,56,0.00,CLR,,0.00,422.0,WeatherDisplay:10.37,2013-11-06 16:46:00,
2013-11-06 10:51:00,37.0,21.9,30.11,NW,316,2.8,11.5,54,0.00,CLR,,0.00,429.0,WeatherDisplay:10.37,2013-11-06 16:51:00,
2013-11-06 10:56:00,37.2,21.6,30.11,NNW,341,3.5,6.0,53,0.00,CLR,,0.00,434.0,WeatherDisplay:10.37,2013-11-06 16:56:00,
2013-11-06 11:01:00,37.6,21.5,30.11,WNW,292,4.2,9.2,52,0.00,CLR,,0.00,439.0,WeatherDisplay:10.37,2013-11-06 17:01:00,
2013-11-06 11:06:00,37.7,21.6,30.11,WNW,289,3.4,6.0,52,0.00,CLR,,0.00,446.0,WeatherDisplay:10.37,2013-11-06 17:06:00,
2013-11-06 11:11:00,38.1,22.0,30.11,WNW,294,4.8,9.2,52,0.00,CLR,,0.00,455.0,WeatherDisplay:10.37,2013-11-06 17:11:00,
2013-11-06 11:16:00,38.4,22.7,30.11,WNW,300,3.6,8.0,53,0.00,CLR,,0.00,476.0,WeatherDisplay:10.37,2013-11-06 17:16:00,
2013-11-06 11:21:00,38.5,21.9,30.11,NW,316,8.8,12.0,51,0.00,CLR,,0.00,483.0,WeatherDisplay:10.37,2013-11-06 17:21:00,
2013-11-06 11:26:00,39.0,22.8,30.11,WNW,297,6.7,12.0,52,0.00,CLR,,0.00,496.0,WeatherDisplay:10.37,2013-11-06 17:26:00,
2013-11-06 11:31:00,39.3,22.7,30.11,WNW,299,5.0,9.0,51,0.00,CLR,,0.00,492.0,WeatherDisplay:10.37,2013-11-06 17:31:00,
2013-11-06 11:36:00,39.5,22.8,30.11,West,281,4.5,9.2,51,0.00,CLR,,0.00,396.0,WeatherDisplay:10.37,2013-11-06 17:36:00,
2013-11-06 11:41:00,39.9,24.1,30.11,WNW,299,2.8,4.0,53,0.00,CLR,,0.00,469.0,WeatherDisplay:10.37,2013-11-06 17:41:00,
2013-11-06 11:46:00,40.8,24.5,30.11,WNW,284,2.5,5.8,52,0.00,CLR,,0.00,468.0,WeatherDisplay:10.37,2013-11-06 17:46:00,
2013-11-06 11:51:00,40.7,24.0,30.11,NNW,331,6.8,12.0,51,0.00,CLR,,0.00,471.0,WeatherDisplay:10.37,2013-11-06 17:51:00,
2013-11-06 11:56:00,40.7,24.4,30.11,NW,317,6.0,9.2,52,0.00,CLR,,0.00,473.0,WeatherDisplay:10.37,2013-11-06 17:56:00,
2013-11-06 12:01:00,40.7,24.0,30.10,NW,310,7.2,10.4,51,0.00,CLR,,0.00,492.0,WeatherDisplay:10.37,2013-11-06 18:01:00,
2013-11-06 12:06:00,41.3,24.5,30.11,NW,325,5.5,12.7,51,0.00,SCT,,0.00,547.0,WeatherDisplay:10.37,2013-11-06 18:06:00,
2013-11-06 12:11:00,41.3,24.5,30.10,NW,313,5.6,13.0,51,0.00,SCT,,0.00,503.0,WeatherDisplay:10.37,2013-11-06 18:11:00,
2013-11-06 12:16:00,41.3,24.0,30.11,NE,34,3.7,6.0,50,0.00,SCT,,0.00,276.0,WeatherDisplay:10.37,2013-11-06 18:16:00,
2013-11-06 12:21:00,41.3,25.0,30.11,WNW,295,4.5,10.4,52,0.00,SCT,,0.00,550.0,WeatherDisplay:10.37,2013-11-06 18:21:00,
2013-11-06 12:26:00,42.0,25.6,30.11,NW,316,4.5,7.0,52,0.00,SCT,,0.00,541.0,WeatherDisplay:10.37,2013-11-06 18:26:00,
2013-11-06 12:31:00,42.3,25.4,30.11,NW,309,5.0,10.4,51,0.00,SCT,,0.00,615.0,WeatherDisplay:10.37,2013-11-06 18:31:00,
2013-11-06 12:36:00,42.5,25.1,30.10,NNW,331,4.1,9.2,50,0.00,SCT,,0.00,388.0,WeatherDisplay:10.37,2013-11-06 18:36:00,
2013-11-06 12:41:00,42.4,25.1,30.11,NW,306,6.7,10.4,50,0.00,SCT,,0.00,355.0,WeatherDisplay:10.37,2013-11-06 18:41:00,
2013-11-06 12:46:00,42.5,26.1,30.10,NNW,331,6.5,11.5,52,0.00,SCT,,0.00,299.0,WeatherDisplay:10.37,2013-11-06 18:46:00,
2013-11-06 12:51:00,42.5,25.6,30.11,South,173,5.5,11.5,51,0.00,SCT,,0.00,334.0,WeatherDisplay:10.37,2013-11-06 18:51:00,
2013-11-06 12:56:00,42.5,25.6,30.11,West,279,3.9,8.1,51,0.00,SCT,,0.00,714.0,WeatherDisplay:10.37,2013-11-06 18:56:00,
2013-11-06 13:01:00,42.5,25.6,30.11,West,260,8.3,13.0,51,0.00,SCT,,0.00,251.0,WeatherDisplay:10.37,2013-11-06 19:01:00,
2013-11-06 13:06:00,42.2,25.3,30.10,NW,313,7.0,11.0,51,0.00,OVC,,0.00,299.0,WeatherDisplay:10.37,2013-11-06 19:06:00,
2013-11-06 13:11:00,42.0,24.7,30.10,NW,323,7.8,12.7,50,0.00,OVC,,0.00,299.0,WeatherDisplay:10.37,2013-11-06 19:11:00,
2013-11-06 13:16:00,42.0,25.2,30.10,WNW,296,3.9,6.0,51,0.00,OVC,,0.00,311.0,WeatherDisplay:10.37,2013-11-06 19:16:00,
2013-11-06 13:21:00,41.9,25.1,30.11,NW,305,7.6,11.5,51,0.00,OVC,,0.00,243.0,WeatherDisplay:10.37,2013-11-06 19:21:00,
2013-11-06 13:26:00,41.9,25.5,30.11,WNW,294,4.4,6.0,52,0.00,OVC,,0.00,255.0,WeatherDisplay:10.37,2013-11-06 19:26:00,
2013-11-06 13:31:00,41.8,25.4,30.10,West,281,7.2,11.0,52,0.00,OVC,,0.00,250.0,WeatherDisplay:10.37,2013-11-06 19:31:00,
2013-11-06 13:36:00,41.8,25.4,30.11,North,9,7.6,12.0,52,0.00,OVC,,0.00,265.0,WeatherDisplay:10.37,2013-11-06 19:36:00,
2013-11-06 13:41:00,41.7,24.9,30.11,NW,307,5.9,10.4,51,0.00,OVC,,0.00,243.0,WeatherDisplay:10.37,2013-11-06 19:41:00,
2013-11-06 13:46:00,41.7,25.4,30.11,NW,306,5.1,9.2,52,0.00,OVC,,0.00,237.0,WeatherDisplay:10.37,2013-11-06 19:46:00,
2013-11-06 13:51:00,41.9,25.5,30.11,North,5,5.7,11.5,52,0.00,OVC,,0.00,216.0,WeatherDisplay:10.37,2013-11-06 19:51:00,
2013-11-06 13:56:00,41.7,25.8,30.11,WNW,286,5.6,9.2,53,0.00,OVC,,0.00,214.0,WeatherDisplay:10.37,2013-11-06 19:56:00,
2013-11-06 14:01:00,41.8,25.9,30.11,NW,321,4.6,8.1,53,0.00,OVC,,0.00,214.0,WeatherDisplay:10.37,2013-11-06 20:01:00,
2013-11-06 14:06:00,42.0,26.1,30.11,NW,318,4.3,8.0,53,0.00,OVC,,0.00,200.0,WeatherDisplay:10.37,2013-11-06 20:06:00,
2013-11-06 14:11:00,42.0,26.1,30.11,NW,323,3.9,11.5,53,0.00,OVC,,0.00,176.0,WeatherDisplay:10.37,2013-11-06 20:11:00,
2013-11-06 14:16:00,42.1,26.2,30.11,WNW,300,3.2,6.0,53,0.00,OVC,,0.00,176.0,WeatherDisplay:10.37,2013-11-06 20:16:00,
2013-11-06 14:21:00,42.0,26.1,30.11,WNW,288,4.4,9.2,53,0.00,OVC,,0.00,181.0,WeatherDisplay:10.37,2013-11-06 20:21:00,
2013-11-06 14:26:00,41.9,26.0,30.11,SW,230,3.5,6.0,53,0.00,OVC,,0.00,176.0,WeatherDisplay:10.37,2013-11-06 20:26:00,
2013-11-06 14:31:00,41.6,26.2,30.11,WNW,293,4.3,6.9,54,0.00,OVC,,0.00,160.0,WeatherDisplay:10.37,2013-11-06 20:31:00,
2013-11-06 14:36:00,41.8,26.4,30.11,WNW,293,5.7,9.2,54,0.00,OVC,,0.00,158.0,WeatherDisplay:10.37,2013-11-06 20:36:00,
2013-11-06 14:41:00,41.8,26.4,30.11,WNW,298,4.4,8.1,54,0.00,OVC,,0.00,146.0,WeatherDisplay:10.37,2013-11-06 20:41:00,
2013-11-06 14:46:00,41.9,26.4,30.11,WNW,300,2.5,6.0,54,0.00,OVC,,0.00,130.0,WeatherDisplay:10.37,2013-11-06 20:46:00,
2013-11-06 14:51:00,42.0,25.6,30.12,West,269,7.1,10.4,52,0.00,OVC,,0.00,125.0,WeatherDisplay:10.37,2013-11-06 20:51:00,
2013-11-06 14:56:00,41.8,25.9,30.12,NW,305,3.7,6.0,53,0.00,OVC,,0.00,123.0,WeatherDisplay:10.37,2013-11-06 20:56:00,
2013-11-06 15:01:00,41.6,25.7,30.12,West,275,5.2,10.4,53,0.00,OVC,,0.00,109.0,WeatherDisplay:10.37,2013-11-06 21:01:00,
2013-11-06 15:06:00,41.4,26.0,30.12,WNW,297,6.5,10.0,54,0.00,OVC,,0.00,100.0,WeatherDisplay:10.37,2013-11-06 21:06:00,
2013-11-06 15:11:00,41.5,26.1,30.11,WNW,297,5.4,9.2,54,0.00,OVC,,0.00,100.0,WeatherDisplay:10.37,2013-11-06 21:11:00,
2013-11-06 15:16:00,41.3,25.9,30.12,West,275,5.4,12.0,54,0.00,OVC,,0.00,90.0,WeatherDisplay:10.37,2013-11-06 21:16:00,
2013-11-06 15:21:00,41.0,25.6,30.12,West,277,3.0,6.9,54,0.00,OVC,,0.00,86.0,WeatherDisplay:10.37,2013-11-06 21:21:00,
2013-11-06 15:26:00,40.9,26.0,30.12,WNW,290,1.7,5.0,55,0.00,OVC,,0.00,83.0,WeatherDisplay:10.37,2013-11-06 21:26:00,
2013-11-06 15:31:00,41.0,26.1,30.12,WNW,291,3.9,7.0,55,0.00,OVC,,0.00,86.0,WeatherDisplay:10.37,2013-11-06 21:31:00,
2013-11-06 15:36:00,41.1,26.1,30.12,WSW,254,1.4,4.0,55,0.00,OVC,,0.00,97.0,WeatherDisplay:10.37,2013-11-06 21:36:00,
2013-11-06 15:41:00,41.2,25.8,30.12,SW,228,2.2,5.0,54,0.00,OVC,,0.00,207.0,WeatherDisplay:10.37,2013-11-06 21:41:00,
2013-11-06 15:46:00,41.9,26.0,30.12,WNW,292,3.4,8.1,53,0.00,OVC,,0.00,185.0,WeatherDisplay:10.37,2013-11-06 21:46:00,
2013-11-06 15:51:00,42.1,25.7,30.12,WSW,254,2.7,5.0,52,0.00,OVC,,0.00,156.0,WeatherDisplay:10.37,2013-11-06 21:51:00,
2013-11-06 15:56:00,42.2,25.8,30.12,WSW,250,3.3,8.1,52,0.00,OVC,,0.00,91.0,WeatherDisplay:10.37,2013-11-06 21:56:00,
2013-11-06 16:01:00,42.0,26.1,30.12,WNW,297,3.8,7.0,53,0.00,OVC,,0.00,76.0,WeatherDisplay:10.37,2013-11-06 22:01:00,
2013-11-06 16:06:00,41.7,25.8,30.12,West,277,2.0,5.0,53,0.00,OVC,,0.00,63.0,WeatherDisplay:10.37,2013-11-06 22:06:00,
2013-11-06 16:11:00,41.5,25.6,30.12,West,280,6.7,9.2,53,0.00,OVC,,0.00,54.0,WeatherDisplay:10.37,2013-11-06 22:11:00,
2013-11-06 16:16:00,41.2,25.3,30.12,West,269,4.5,8.0,53,0.00,OVC,,0.00,30.0,WeatherDisplay:10.37,2013-11-06 22:16:00,
2013-11-06 16:21:00,40.9,25.5,30.12,WNW,294,2.1,6.0,54,0.00,OVC,,0.00,21.0,WeatherDisplay:10.37,2013-11-06 22:21:00,
2013-11-06 16:26:00,40.7,25.3,30.12,WNW,282,3.5,7.0,54,0.00,OVC,,0.00,19.0,WeatherDisplay:10.37,2013-11-06 22:26:00,
2013-11-06 16:31:00,40.5,25.1,30.12,West,281,3.9,6.0,54,0.00,OVC,,0.00,16.0,WeatherDisplay:10.37,2013-11-06 22:31:00,
2013-11-06 16:36:00,40.2,25.3,30.12,WNW,284,3.6,6.0,55,0.00,OVC,,0.00,12.0,WeatherDisplay:10.37,2013-11-06 22:36:00,
2013-11-06 16:41:00,39.9,25.5,30.12,WNW,284,1.4,3.0,56,0.00,OVC,,0.00,11.0,WeatherDisplay:10.37,2013-11-06 22:41:00,
2013-11-06 16:46:00,39.7,25.7,30.12,WSW,241,0.7,3.0,57,0.00,OVC,,0.00,9.0,WeatherDisplay:10.37,2013-11-06 22:46:00,
2013-11-06 16:51:00,39.5,25.5,30.12,West,266,1.0,2.3,57,0.00,OVC,,0.00,7.0,WeatherDisplay:10.37,2013-11-06 22:51:00,
2013-11-06 16:56:00,39.3,25.7,30.12,West,269,0.2,2.0,58,0.00,OVC,,0.00,5.0,WeatherDisplay:10.37,2013-11-06 22:56:00,
2013-11-06 17:01:00,39.1,25.6,30.12,West,269,0.4,2.3,58,0.00,OVC,,0.00,0.0,WeatherDisplay:10.37,2013-11-06 23:01:00,
2013-11-06 17:06:00,38.8,25.7,30.12,West,270,1.9,3.5,59,0.00,FEW,,0.00,0.0,WeatherDisplay:10.37,2013-11-06 23:06:00,
2013-11-06 17:11:00,38.5,25.8,30.12,West,270,0.3,1.2,60,0.00,FEW,,0.00,0.0,WeatherDisplay:10.37,2013-11-06 23:11:00,
2013-11-06 17:16:00,38.0,25.7,30.12,West,270,1.5,3.5,61,0.00,FEW,,0.00,0.0,WeatherDisplay:10.37,2013-11-06 23:16:00,
2013-11-06 17:21:00,37.9,26.0,30.12,West,270,0.1,1.2,62,0.00,FEW,,0.00,0.0,WeatherDisplay:10.37,2013-11-06 23:21:00,
2013-11-06 17:26:00,37.6,25.7,30.12,West,270,0.2,2.0,62,0.00,FEW,,0.00,0.0,WeatherDisplay:10.37,2013-11-06 23:26:00,
2013-11-06 17:31:00,37.4,25.6,30.12,West,270,0.4,1.2,62,0.00,FEW,,0.00,0.0,WeatherDisplay:10.37,2013-11-06 23:31:00,
2013-11-06 17:36:00,37.4,25.9,30.12,West,270,1.3,2.3,63,0.00,FEW,,0.00,0.0,WeatherDisplay:10.37,2013-11-06 23:36:00,
2013-11-06 17:41:00,37.0,26.3,30.12,West,270,1.6,3.5,65,0.00,FEW,,0.00,0.0,WeatherDisplay:10.37,2013-11-06 23:41:00,
2013-11-06 17:46:00,36.7,26.8,30.12,West,270,0.3,1.2,67,0.00,FEW,,0.00,0.0,WeatherDisplay:10.37,2013-11-06 23:46:00,
2013-11-06 17:51:00,36.6,26.3,30.13,South,173,2.2,4.0,66,0.00,FEW,,0.00,0.0,WeatherDisplay:10.37,2013-11-06 23:51:00,
2013-11-06 17:56:00,36.4,27.2,30.13,WSW,245,1.5,3.5,69,0.00,FEW,,0.00,0.0,WeatherDisplay:10.37,2013-11-06 23:56:00,
2013-11-06 18:01:00,36.4,27.9,30.13,South,174,1.7,4.0,71,0.00,FEW,,0.00,0.0,WeatherDisplay:10.37,2013-11-07 00:01:00,
2013-11-06 18:06:00,36.2,28.4,30.13,South,190,1.1,3.5,73,0.00,BKN,,0.00,0.0,WeatherDisplay:10.37,2013-11-07 00:06:00,
2013-11-06 18:11:00,36.0,28.8,30.13,SSW,194,2.3,4.0,75,0.00,BKN,,0.00,0.0,WeatherDisplay:10.37,2013-11-07 00:11:00,
2013-11-06 18:16:00,35.7,29.2,30.14,SW,215,2.0,4.0,77,0.00,BKN,,0.00,0.0,WeatherDisplay:10.37,2013-11-07 00:16:00,
2013-11-06 18:21:00,35.6,29.4,30.13,SW,216,2.1,3.5,78,0.00,BKN,,0.00,0.0,WeatherDisplay:10.37,2013-11-07 00:21:00,
2013-11-06 18:26:00,35.5,29.6,30.14,SSE,165,1.6,5.0,79,0.00,BKN,,0.00,0.0,WeatherDisplay:10.37,2013-11-07 00:26:00,
2013-11-06 18:31:00,35.2,29.3,30.13,SW,229,1.5,3.5,79,0.00,BKN,,0.00,0.0,WeatherDisplay:10.37,2013-11-07 00:31:00,
2013-11-06 18:36:00,35.1,29.2,30.14,South,188,1.5,4.0,79,0.00,BKN,,0.00,0.0,WeatherDisplay:10.37,2013-11-07 00:36:00,
2013-11-06 18:41:00,35.0,29.1,30.14,SSW,212,1.7,3.5,79,0.00,BKN,,0.00,0.0,WeatherDisplay:10.37,2013-11-07 00:41:00,
2013-11-06 18:46:00,34.9,29.4,30.14,South,182,1.8,4.0,80,0.00,BKN,,0.00,0.0,WeatherDisplay:10.37,2013-11-07 00:46:00,
2013-11-06 18:51:00,34.8,29.3,30.14,South,190,1.0,3.5,80,0.00,BKN,,0.00,0.0,WeatherDisplay:10.37,2013-11-07 00:51:00,
2013-11-06 18:56:00,34.7,29.2,30.14,SSW,196,3.0,6.0,80,0.00,BKN,,0.00,0.0,WeatherDisplay:10.37,2013-11-07 00:56:00,
2013-11-06 19:01:00,34.6,29.4,30.14,South,177,1.4,3.5,81,0.00,BKN,,0.00,0.0,WeatherDisplay:10.37,2013-11-07 01:01:00,
2013-11-06 19:06:00,34.6,29.4,30.14,South,175,1.2,3.5,81,0.00,BKN,,0.00,0.0,WeatherDisplay:10.37,2013-11-07 01:06:00,
2013-11-06 19:11:00,34.4,29.2,30.14,SSE,168,2.1,4.0,81,0.00,BKN,,0.00,0.0,WeatherDisplay:10.37,2013-11-07 01:11:00,
2013-11-06 19:16:00,34.3,29.4,30.14,SSE,167,2.0,3.5,82,0.00,BKN,,0.00,0.0,WeatherDisplay:10.37,2013-11-07 01:16:00,
2013-11-06 19:21:00,34.2,29.3,30.14,South,171,0.9,3.5,82,0.00,BKN,,0.00,0.0,WeatherDisplay:10.37,2013-11-07 01:21:00,
2013-11-06 19:26:00,34.0,29.1,30.14,South,171,0.1,2.3,82,0.00,BKN,,0.00,0.0,WeatherDisplay:10.37,2013-11-07 01:26:00,
2013-11-06 19:31:00,33.9,29.3,30.14,South,172,0.6,1.2,83,0.00,BKN,,0.00,0.0,WeatherDisplay:10.37,2013-11-07 01:31:00,
2013-11-06 19:36:00,33.9,29.3,30.14,South,172,0.9,2.3,83,0.00,BKN,,0.00,0.0,WeatherDisplay:10.37,2013-11-07 01:36:00,
2013-11-06 19:41:00,33.7,29.1,30.14,South,172,1.2,3.5,83,0.00,BKN,,0.00,0.0,WeatherDisplay:10.37,2013-11-07 01:41:00,
2013-11-06 19:46:00,33.7,29.1,30.14,South,173,1.2,2.3,83,0.00,BKN,,0.00,0.0,WeatherDisplay:10.37,2013-11-07 01:46:00,
2013-11-06 19:51:00,33.6,29.0,30.14,South,180,0.6,3.5,83,0.00,BKN,,0.00,0.0,WeatherDisplay:10.37,2013-11-07 01:51:00,
2013-11-06 19:56:00,33.6,29.0,30.14,South,170,1.1,4.0,83,0.00,BKN,,0.00,0.0,WeatherDisplay:10.37,2013-11-07 01:56:00,
2013-11-06 20:01:00,33.5,29.2,30.14,South,171,1.4,2.3,84,0.00,BKN,,0.00,0.0,WeatherDisplay:10.37,2013-11-07 02:01:00,
2013-11-06 20:06:00,33.4,29.1,30.14,SSW,204,0.9,2.3,84,0.00,BKN,,0.00,0.0,WeatherDisplay:10.37,2013-11-07 02:06:00,
2013-11-06 20:11:00,33.2,28.9,30.14,SSE,157,2.2,3.5,84,0.00,BKN,,0.00,0.0,WeatherDisplay:10.37,2013-11-07 02:11:00,
2013-11-06 20:16:00,33.0,28.7,30.14,South,190,1.3,3.5,84,0.00,BKN,,0.00,0.0,WeatherDisplay:10.37,2013-11-07 02:16:00,
2013-11-06 20:21:00,33.0,28.7,30.14,South,189,1.6,3.5,84,0.00,BKN,,0.00,0.0,WeatherDisplay:10.37,2013-11-07 02:21:00,
2013-11-06 20:26:00,32.8,28.8,30.14,SSW,200,2.4,4.0,85,0.00,BKN,,0.00,0.0,WeatherDisplay:10.37,2013-11-07 02:26:00,
2013-11-06 20:31:00,32.8,28.8,30.14,SSW,200,1.4,3.5,85,0.00,BKN,,0.00,0.0,WeatherDisplay:10.37,2013-11-07 02:31:00,
2013-11-06 20:36:00,32.6,28.6,30.14,SSW,200,0.4,2.3,85,0.00,BKN,,0.00,0.0,WeatherDisplay:10.37,2013-11-07 02:36:00,
2013-11-06 20:41:00,32.5,28.5,30.14,SSE,167,0.8,2.3,85,0.00,BKN,,0.00,0.0,WeatherDisplay:10.37,2013-11-07 02:41:00,
2013-11-06 20:46:00,32.4,28.7,30.14,SSE,167,1.5,3.5,86,0.00,BKN,,0.00,0.0,WeatherDisplay:10.37,2013-11-07 02:46:00,
2013-11-06 20:51:00,32.3,28.6,30.14,South,190,3.0,4.0,86,0.00,BKN,,0.00,0.0,WeatherDisplay:10.37,2013-11-07 02:51:00,
2013-11-06 20:56:00,32.1,28.4,30.14,South,177,1.9,3.5,86,0.00,BKN,,0.00,0.0,WeatherDisplay:10.37,2013-11-07 02:56:00,
2013-11-06 21:01:00,32.2,28.5,30.14,South,184,1.5,3.0,86,0.00,BKN,,0.00,0.0,WeatherDisplay:10.37,2013-11-07 03:01:00,
2013-11-06 21:06:00,32.1,28.4,30.14,SSE,151,1.6,3.5,86,0.00,BKN,,0.00,0.0,WeatherDisplay:10.37,2013-11-07 03:06:00,
2013-11-06 21:11:00,32.0,28.6,30.14,SSW,194,2.3,4.0,87,0.00,BKN,,0.00,0.0,WeatherDisplay:10.37,2013-11-07 03:11:00,
2013-11-06 21:16:00,32.1,28.7,30.15,South,180,1.6,3.5,87,0.00,BKN,,0.00,0.0,WeatherDisplay:10.37,2013-11-07 03:16:00,
2013-11-06 21:21:00,32.1,28.7,30.15,SSE,162,1.0,3.5,87,0.00,BKN,,0.00,0.0,WeatherDisplay:10.37,2013-11-07 03:21:00,
2013-11-06 21:26:00,32.1,28.7,30.14,SSE,163,1.7,3.5,87,0.00,BKN,,0.00,0.0,WeatherDisplay:10.37,2013-11-07 03:26:00,
2013-11-06 21:31:00,32.0,28.8,30.14,South,180,1.9,4.0,88,0.00,BKN,,0.00,0.0,WeatherDisplay:10.37,2013-11-07 03:31:00,
2013-11-06 21:36:00,31.9,28.5,30.15,South,179,1.6,3.5,87,0.00,BKN,,0.00,0.0,WeatherDisplay:10.37,2013-11-07 03:36:00,
2013-11-06 21:41:00,31.9,28.5,30.15,SSW,200,1.7,3.5,87,0.00,BKN,,0.00,0.0,WeatherDisplay:10.37,2013-11-07 03:41:00,
2013-11-06 21:46:00,32.0,28.6,30.15,SSW,205,1.8,5.8,87,0.00,BKN,,0.00,0.0,WeatherDisplay:10.37,2013-11-07 03:46:00,
2013-11-06 21:51:00,32.1,28.7,30.15,West,261,1.8,4.0,87,0.00,BKN,,0.00,0.0,WeatherDisplay:10.37,2013-11-07 03:51:00,
2013-11-06 21:56:00,32.2,28.5,30.15,SSE,166,2.2,4.0,86,0.00,BKN,,0.00,0.0,WeatherDisplay:10.37,2013-11-07 03:56:00,
2013-11-06 22:01:00,32.2,28.5,30.15,SSW,192,2.8,5.8,86,0.00,BKN,,0.00,0.0,WeatherDisplay:10.37,2013-11-07 04:01:00,
2013-11-06 22:06:00,32.3,28.6,30.15,SW,230,3.7,7.0,86,0.00,BKN,,0.00,0.0,WeatherDisplay:10.37,2013-11-07 04:06:00,
2013-11-06 22:11:00,32.5,28.5,30.15,SSW,213,2.1,5.0,85,0.00,BKN,,0.00,0.0,WeatherDisplay:10.37,2013-11-07 04:11:00,
2013-11-06 22:16:00,32.5,28.5,30.15,SW,234,0.7,3.0,85,0.00,BKN,,0.00,0.0,WeatherDisplay:10.37,2013-11-07 04:16:00,
2013-11-06 22:21:00,32.4,28.4,30.16,West,277,0.8,3.5,85,0.00,BKN,,0.00,0.0,WeatherDisplay:10.37,2013-11-07 04:21:00,
2013-11-06 22:26:00,32.5,28.5,30.16,WSW,239,1.9,5.0,85,0.00,BKN,,0.00,0.0,WeatherDisplay:10.37,2013-11-07 04:26:00,
2013-11-06 22:31:00,32.6,28.3,30.15,WSW,250,1.1,4.6,84,0.00,BKN,,0.00,0.0,WeatherDisplay:10.37,2013-11-07 04:31:00,
2013-11-06 22:36:00,32.5,28.2,30.15,SW,224,0.2,1.2,84,0.00,BKN,,0.00,0.0,WeatherDisplay:10.37,2013-11-07 04:36:00,
2013-11-06 22:41:00,32.5,28.2,30.15,West,277,0.4,3.5,84,0.00,BKN,,0.00,0.0,WeatherDisplay:10.37,2013-11-07 04:41:00,
2013-11-06 22:46:00,32.4,28.1,30.15,SW,228,1.6,6.0,84,0.00,BKN,,0.00,0.0,WeatherDisplay:10.37,2013-11-07 04:46:00,
2013-11-06 22:51:00,32.3,28.3,30.15,SW,231,0.2,1.2,85,0.00,BKN,,0.00,0.0,WeatherDisplay:10.37,2013-11-07 04:51:00,
2013-11-06 22:56:00,32.1,28.1,30.15,WSW,242,0.8,2.3,85,0.00,BKN,,0.00,0.0,WeatherDisplay:10.37,2013-11-07 04:56:00,
2013-11-06 23:01:00,32.0,28.0,30.15,WSW,243,0.1,2.3,85,0.00,BKN,,0.00,0.0,WeatherDisplay:10.37,2013-11-07 05:01:00,
2013-11-06 23:02:00,31.9,27.9,30.15,WSW,243,0.1,1.2,85,0.00,CLR,,0.00,0.0,WeatherDisplay:10.37,2013-11-07 05:02:00,
2013-11-06 23:03:00,31.9,27.9,30.15,West,259,1.0,3.5,85,0.00,CLR,,0.00,0.0,WeatherDisplay:10.37,2013-11-07 05:03:00,
2013-11-06 23:05:00,31.8,27.8,30.15,West,259,1.2,3.5,85,0.00,CLR,,0.00,0.0,WeatherDisplay:10.37,2013-11-07 05:05:00,
2013-11-06 23:06:00,31.9,27.9,30.15,West,259,0.9,2.3,85,0.00,CLR,,0.00,0.0,WeatherDisplay:10.37,2013-11-07 05:06:00,
2013-11-06 23:07:00,31.9,27.9,30.15,West,265,1.4,4.0,85,0.00,CLR,,0.00,0.0,WeatherDisplay:10.37,2013-11-07 05:07:00,
2013-11-06 23:12:00,31.9,27.9,30.15,West,281,1.5,4.0,85,0.00,CLR,,0.00,0.0,WeatherDisplay:10.37,2013-11-07 05:12:00,
2013-11-06 23:17:00,31.7,28.0,30.15,WNW,298,3.1,5.0,86,0.00,CLR,,0.00,0.0,WeatherDisplay:10.37,2013-11-07 05:17:00,
2013-11-06 23:22:00,31.5,27.8,30.15,WNW,290,2.7,5.0,86,0.00,CLR,,0.00,0.0,WeatherDisplay:10.37,2013-11-07 05:22:00,
2013-11-06 23:27:00,31.4,27.7,30.16,WSW,243,2.2,5.0,86,0.00,CLR,,0.00,0.0,WeatherDisplay:10.37,2013-11-07 05:27:00,
2013-11-06 23:32:00,31.3,27.6,30.16,West,273,2.0,4.0,86,0.00,CLR,,0.00,0.0,WeatherDisplay:10.37,2013-11-07 05:32:00,
2013-11-06 23:37:00,31.2,27.5,30.16,West,275,1.5,3.0,86,0.00,CLR,,0.00,0.0,WeatherDisplay:10.37,2013-11-07 05:37:00,
2013-11-06 23:42:00,31.0,27.3,30.16,WNW,288,1.6,3.5,86,0.00,CLR,,0.00,0.0,WeatherDisplay:10.37,2013-11-07 05:42:00,
2013-11-06 23:47:00,30.8,27.4,30.16,West,268,0.5,3.5,87,0.00,CLR,,0.00,0.0,WeatherDisplay:10.37,2013-11-07 05:47:00,
2013-11-06 23:52:00,30.7,27.3,30.16,WNW,284,2.4,3.5,87,0.00,CLR,,0.00,0.0,WeatherDisplay:10.37,2013-11-07 05:52:00,
2013-11-06 23:57:00,30.6,27.2,30.17,West,278,4.0,7.0,87,0.00,CLR,,0.00,0.0,WeatherDisplay:10.37,2013-11-07 05:57:00,